Time,TemperatureF,DewpointF,PressureIn,WindDirection,WindDirectionDegrees,WindSpeedMPH,WindSpeedGustMPH,Humidity,HourlyPrecipIn,Conditions,Clouds,dailyrainin,SoftwareType,DateUTC
2013-04-06 00:00:00,48.6,41.0,30.04,ESE,104,0.0,0.0,75,0.00,,---,0.00,VWS V14.01,2013-04-06 05:00:00,
2013-04-06 00:02:00,48.7,40.8,30.04,ESE,104,0.0,2.0,74,0.00,,---,0.00,VWS V14.01,2013-04-06 05:02:00,
2013-04-06 00:03:00,48.7,41.1,30.03,ESE,104,0.0,2.0,75,0.00,,---,0.00,VWS V14.01,2013-04-06 05:03:00,
2013-04-06 00:07:00,49.1,40.8,30.03,ESE,104,0.0,2.0,73,0.00,,---,0.00,VWS V14.01,2013-04-06 05:07:00,
2013-04-06 00:08:00,49.1,40.8,30.03,ESE,104,0.0,2.0,73,0.00,,---,0.00,VWS V14.01,2013-04-06 05:08:00,
2013-04-06 00:12:00,48.8,41.6,30.04,ESE,104,0.0,2.0,76,0.00,,---,0.00,VWS V14.01,2013-04-06 05:12:00,
2013-04-06 00:13:00,48.7,41.8,30.04,ESE,104,0.0,2.0,77,0.00,,---,0.00,VWS V14.01,2013-04-06 05:13:00,
2013-04-06 00:14:00,48.6,41.4,30.04,ESE,104,0.0,2.0,76,0.00,,---,0.00,VWS V14.01,2013-04-06 05:14:00,
2013-04-06 00:17:00,48.6,41.0,30.03,ESE,104,0.0,2.0,75,0.00,,---,0.00,VWS V14.01,2013-04-06 05:17:00,
2013-04-06 00:18:00,48.7,41.1,30.03,ESE,104,0.0,2.0,75,0.00,,---,0.00,VWS V14.01,2013-04-06 05:18:00,
2013-04-06 00:19:00,48.8,41.2,30.03,ESE,104,0.0,2.0,75,0.00,,---,0.00,VWS V14.01,2013-04-06 05:19:00,
2013-04-06 00:23:00,48.9,41.0,30.04,ESE,104,0.0,2.0,74,0.00,,---,0.00,VWS V14.01,2013-04-06 05:23:00,
2013-04-06 00:25:00,49.1,40.8,30.04,ESE,104,0.0,2.0,73,0.00,,---,0.00,VWS V14.01,2013-04-06 05:25:00,
2013-04-06 00:28:00,49.4,41.5,30.04,ESE,104,0.0,0.0,74,0.00,,---,0.00,VWS V14.01,2013-04-06 05:28:00,
2013-04-06 00:29:00,49.5,41.2,30.04,ESE,104,0.0,0.0,73,0.00,,---,0.00,VWS V14.01,2013-04-06 05:29:00,
2013-04-06 00:30:00,49.5,41.2,30.04,ESE,104,0.0,0.0,73,0.00,,---,0.00,VWS V14.01,2013-04-06 05:30:00,
2013-04-06 00:33:00,49.6,41.3,30.03,ESE,104,0.0,0.0,73,0.00,,---,0.00,VWS V14.01,2013-04-06 05:33:00,
2013-04-06 00:34:00,49.6,41.3,30.03,ESE,104,0.0,0.0,73,0.00,,---,0.00,VWS V14.01,2013-04-06 05:34:00,
2013-04-06 00:35:00,49.6,41.3,30.03,ESE,104,0.0,0.0,73,0.00,,---,0.00,VWS V14.01,2013-04-06 05:35:00,
2013-04-06 00:38:00,49.3,41.4,30.03,ESE,104,0.0,0.0,74,0.00,,---,0.00,VWS V14.01,2013-04-06 05:38:00,
2013-04-06 00:39:00,49.2,41.6,30.03,ESE,104,1.0,2.0,75,0.00,,---,0.00,VWS V14.01,2013-04-06 05:39:00,
2013-04-06 00:40:00,49.2,41.6,30.03,ESE,104,0.0,2.0,75,0.00,,---,0.00,VWS V14.01,2013-04-06 05:40:00,
2013-04-06 00:43:00,49.2,42.0,30.03,ESE,104,0.0,2.0,76,0.00,,---,0.00,VWS V14.01,2013-04-06 05:43:00,
2013-04-06 00:44:00,49.2,42.0,30.03,ESE,104,0.0,2.0,76,0.00,,---,0.00,VWS V14.01,2013-04-06 05:44:00,
2013-04-06 00:45:00,49.3,41.4,30.03,ESE,104,0.0,2.0,74,0.00,,---,0.00,VWS V14.01,2013-04-06 05:45:00,
2013-04-06 00:48:00,49.4,41.8,30.03,ESE,104,0.0,2.0,75,0.00,,---,0.00,VWS V14.01,2013-04-06 05:48:00,
2013-04-06 00:49:00,49.4,42.2,30.03,ESE,104,0.0,2.0,76,0.00,,---,0.00,VWS V14.01,2013-04-06 05:49:00,
2013-04-06 00:50:00,49.4,42.2,30.03,ESE,104,0.0,2.0,76,0.00,,---,0.00,VWS V14.01,2013-04-06 05:50:00,
2013-04-06 00:51:00,49.3,42.1,30.03,ESE,104,0.0,2.0,76,0.00,,---,0.00,VWS V14.01,2013-04-06 05:51:00,
2013-04-06 00:54:00,48.8,41.6,30.03,ESE,104,0.0,2.0,76,0.00,,---,0.00,VWS V14.01,2013-04-06 05:54:00,
2013-04-06 00:55:00,48.5,41.6,30.03,ESE,104,0.0,2.0,77,0.00,,---,0.00,VWS V14.01,2013-04-06 05:55:00,
2013-04-06 00:56:00,48.3,41.4,30.03,ESE,104,0.0,2.0,77,0.00,,---,0.00,VWS V14.01,2013-04-06 05:56:00,
2013-04-06 00:59:00,48.6,41.4,30.03,ESE,104,1.0,2.0,76,0.00,,---,0.00,VWS V14.01,2013-04-06 05:59:00,
2013-04-06 01:00:00,48.6,41.7,30.03,ESE,104,1.0,2.0,77,0.00,,---,0.00,VWS V14.01,2013-04-06 06:00:00,
2013-04-06 01:01:00,48.6,41.4,30.03,ESE,104,0.0,2.0,76,0.00,,---,0.00,VWS V14.01,2013-04-06 06:01:00,
2013-04-06 01:04:00,48.7,41.1,30.03,ESE,104,0.0,2.0,75,0.00,,---,0.00,VWS V14.01,2013-04-06 06:04:00,
2013-04-06 01:06:00,48.9,41.3,30.03,ESE,104,0.0,2.0,75,0.00,,---,0.00,VWS V14.01,2013-04-06 06:06:00,
2013-04-06 01:07:00,49.0,41.1,30.03,ESE,104,0.0,2.0,74,0.00,,---,0.00,VWS V14.01,2013-04-06 06:07:00,
2013-04-06 01:09:00,49.3,41.4,30.03,ESE,104,0.0,2.0,74,0.00,,---,0.00,VWS V14.01,2013-04-06 06:09:00,
2013-04-06 01:11:00,49.2,41.6,30.03,ESE,104,0.0,2.0,75,0.00,,---,0.00,VWS V14.01,2013-04-06 06:11:00,
2013-04-06 01:12:00,49.1,41.5,30.04,ESE,104,0.0,2.0,75,0.00,,---,0.00,VWS V14.01,2013-04-06 06:12:00,
2013-04-06 01:14:00,49.0,41.4,30.03,ESE,104,0.0,2.0,75,0.00,,---,0.00,VWS V14.01,2013-04-06 06:14:00,
2013-04-06 01:16:00,49.0,41.4,30.03,ESE,104,0.0,2.0,75,0.00,,---,0.00,VWS V14.01,2013-04-06 06:16:00,
2013-04-06 01:17:00,49.0,41.4,30.03,ESE,104,0.0,2.0,75,0.00,,---,0.00,VWS V14.01,2013-04-06 06:17:00,
2013-04-06 01:19:00,48.8,41.6,30.03,ESE,104,0.0,2.0,76,0.00,,---,0.00,VWS V14.01,2013-04-06 06:19:00,
2013-04-06 01:20:00,48.8,41.9,30.03,ESE,104,0.0,2.0,77,0.00,,---,0.00,VWS V14.01,2013-04-06 06:20:00,
2013-04-06 01:21:00,48.6,41.4,30.03,ESE,104,0.0,2.0,76,0.00,,---,0.00,VWS V14.01,2013-04-06 06:21:00,
2013-04-06 01:22:00,48.5,41.6,30.03,ESE,104,0.0,2.0,77,0.00,,---,0.00,VWS V14.01,2013-04-06 06:22:00,
2013-04-06 01:24:00,48.3,41.4,30.03,ESE,104,0.0,2.0,77,0.00,,---,0.00,VWS V14.01,2013-04-06 06:24:00,
2013-04-06 01:25:00,48.2,41.7,30.03,ESE,104,0.0,2.0,78,0.00,,---,0.00,VWS V14.01,2013-04-06 06:25:00,
2013-04-06 01:27:00,47.9,41.7,30.04,ESE,104,0.0,0.0,79,0.00,,---,0.00,VWS V14.01,2013-04-06 06:27:00,
2013-04-06 01:30:00,47.8,41.3,30.03,ESE,104,0.0,0.0,78,0.00,,---,0.00,VWS V14.01,2013-04-06 06:30:00,
2013-04-06 01:32:00,47.9,41.0,30.03,ESE,104,0.0,0.0,77,0.00,,---,0.00,VWS V14.01,2013-04-06 06:32:00,
2013-04-06 01:33:00,47.9,41.0,30.03,ESE,104,0.0,0.0,77,0.00,,---,0.00,VWS V14.01,2013-04-06 06:33:00,
2013-04-06 01:35:00,48.0,41.2,30.03,ESE,104,0.0,0.0,77,0.00,,---,0.00,VWS V14.01,2013-04-06 06:35:00,
2013-04-06 01:37:00,48.0,41.2,30.03,ESE,104,0.0,0.0,77,0.00,,---,0.00,VWS V14.01,2013-04-06 06:37:00,
2013-04-06 01:38:00,48.0,41.2,30.03,ESE,104,0.0,0.0,77,0.00,,---,0.00,VWS V14.01,2013-04-06 06:38:00,
2013-04-06 01:40:00,47.8,41.3,30.03,ESE,104,0.0,0.0,78,0.00,,---,0.00,VWS V14.01,2013-04-06 06:40:00,
2013-04-06 01:43:00,47.6,41.1,30.03,ESE,104,0.0,2.0,78,0.00,,---,0.00,VWS V14.01,2013-04-06 06:43:00,
2013-04-06 01:45:00,47.6,40.8,30.03,ESE,104,0.0,2.0,77,0.00,,---,0.00,VWS V14.01,2013-04-06 06:45:00,
2013-04-06 01:46:00,47.6,40.8,30.03,ESE,104,0.0,2.0,77,0.00,,---,0.00,VWS V14.01,2013-04-06 06:46:00,
2013-04-06 01:48:00,47.6,41.1,30.03,ESE,104,0.0,2.0,78,0.00,,---,0.00,VWS V14.01,2013-04-06 06:48:00,
2013-04-06 01:49:00,47.5,41.0,30.03,ESE,104,0.0,2.0,78,0.00,,---,0.00,VWS V14.01,2013-04-06 06:49:00,
2013-04-06 01:50:00,47.4,40.9,30.03,ESE,104,0.0,2.0,78,0.00,,---,0.00,VWS V14.01,2013-04-06 06:50:00,
2013-04-06 01:51:00,47.4,40.9,30.03,ESE,104,0.0,2.0,78,0.00,,---,0.00,VWS V14.01,2013-04-06 06:51:00,
2013-04-06 01:53:00,47.3,41.1,30.03,ESE,104,0.0,2.0,79,0.00,,---,0.00,VWS V14.01,2013-04-06 06:53:00,
2013-04-06 01:55:00,47.1,41.3,30.03,ESE,104,0.0,2.0,80,0.00,,---,0.00,VWS V14.01,2013-04-06 06:55:00,
2013-04-06 01:56:00,47.0,41.2,30.03,ESE,104,1.0,2.0,80,0.00,,---,0.00,VWS V14.01,2013-04-06 06:56:00,
2013-04-06 01:58:00,46.9,41.4,30.03,ESE,104,0.0,1.0,81,0.00,,---,0.00,VWS V14.01,2013-04-06 06:58:00,
2013-04-06 02:00:00,46.8,41.3,30.03,ESE,104,0.0,1.0,81,0.00,,---,0.00,VWS V14.01,2013-04-06 07:00:00,
2013-04-06 02:01:00,46.9,41.4,30.03,ESE,104,0.0,1.0,81,0.00,,---,0.00,VWS V14.01,2013-04-06 07:01:00,
2013-04-06 02:03:00,47.0,40.8,30.03,ESE,104,0.0,1.0,79,0.00,,---,0.00,VWS V14.01,2013-04-06 07:03:00,
2013-04-06 02:06:00,47.0,40.8,30.03,ESE,104,0.0,1.0,79,0.00,,---,0.00,VWS V14.01,2013-04-06 07:06:00,
2013-04-06 02:07:00,47.0,40.8,30.03,ESE,104,0.0,1.0,79,0.00,,---,0.00,VWS V14.01,2013-04-06 07:07:00,
2013-04-06 02:08:00,47.0,41.2,30.03,ESE,104,0.0,1.0,80,0.00,,---,0.00,VWS V14.01,2013-04-06 07:08:00,
2013-04-06 02:11:00,46.8,41.3,30.03,ESE,104,0.0,1.0,81,0.00,,---,0.00,VWS V14.01,2013-04-06 07:11:00,
2013-04-06 02:12:00,46.7,41.2,30.03,ESE,104,0.0,1.0,81,0.00,,---,0.00,VWS V14.01,2013-04-06 07:12:00,
2013-04-06 02:14:00,46.4,40.9,30.03,ESE,104,0.0,1.0,81,0.00,,---,0.00,VWS V14.01,2013-04-06 07:14:00,
2013-04-06 02:16:00,46.3,40.8,30.03,ESE,104,0.0,1.0,81,0.00,,---,0.00,VWS V14.01,2013-04-06 07:16:00,
2013-04-06 02:17:00,46.2,40.7,30.03,ESE,104,0.0,1.0,81,0.00,,---,0.00,VWS V14.01,2013-04-06 07:17:00,
2013-04-06 02:19:00,46.3,40.8,30.02,ESE,104,0.0,1.0,81,0.00,,---,0.00,VWS V14.01,2013-04-06 07:19:00,
2013-04-06 02:21:00,46.4,40.9,30.02,ESE,104,0.0,1.0,81,0.00,,---,0.00,VWS V14.01,2013-04-06 07:21:00,
2013-04-06 02:22:00,46.5,41.0,30.02,ESE,104,0.0,1.0,81,0.00,,---,0.00,VWS V14.01,2013-04-06 07:22:00,
2013-04-06 02:24:00,46.9,41.4,30.02,ESE,104,0.0,1.0,81,0.00,,---,0.00,VWS V14.01,2013-04-06 07:24:00,
2013-04-06 02:26:00,47.0,41.2,30.02,ESE,104,0.0,1.0,80,0.00,,---,0.00,VWS V14.01,2013-04-06 07:26:00,
2013-04-06 02:27:00,47.0,40.8,30.02,ESE,104,0.0,1.0,79,0.00,,---,0.00,VWS V14.01,2013-04-06 07:27:00,
2013-04-06 02:29:00,46.9,41.1,30.02,ESE,104,0.0,0.0,80,0.00,,---,0.00,VWS V14.01,2013-04-06 07:29:00,
2013-04-06 02:30:00,46.8,41.0,30.02,ESE,104,0.0,0.0,80,0.00,,---,0.00,VWS V14.01,2013-04-06 07:30:00,
2013-04-06 02:32:00,46.5,41.0,30.02,ESE,104,0.0,0.0,81,0.00,,---,0.00,VWS V14.01,2013-04-06 07:32:00,
2013-04-06 02:35:00,46.4,40.9,30.02,ESE,104,0.0,1.0,81,0.00,,---,0.00,VWS V14.01,2013-04-06 07:35:00,
2013-04-06 02:37:00,46.4,40.9,30.02,ESE,104,0.0,1.0,81,0.00,,---,0.00,VWS V14.01,2013-04-06 07:37:00,
2013-04-06 02:40:00,46.5,41.3,30.02,ESE,104,0.0,1.0,82,0.00,,---,0.00,VWS V14.01,2013-04-06 07:40:00,
2013-04-06 02:42:00,46.3,41.1,30.02,ESE,104,0.0,1.0,82,0.00,,---,0.00,VWS V14.01,2013-04-06 07:42:00,
2013-04-06 02:43:00,46.3,41.1,30.02,ESE,104,0.0,1.0,82,0.00,,---,0.00,VWS V14.01,2013-04-06 07:43:00,
2013-04-06 02:46:00,46.2,41.3,30.02,ESE,104,0.0,1.0,83,0.00,,---,0.00,VWS V14.01,2013-04-06 07:46:00,
2013-04-06 02:47:00,46.0,40.8,30.02,ESE,104,0.0,1.0,82,0.00,,---,0.00,VWS V14.01,2013-04-06 07:47:00,
2013-04-06 02:48:00,45.8,40.6,30.02,ESE,104,0.0,1.0,82,0.00,,---,0.00,VWS V14.01,2013-04-06 07:48:00,
2013-04-06 02:51:00,45.4,40.5,30.02,ESE,104,1.0,2.0,83,0.00,,---,0.00,VWS V14.01,2013-04-06 07:51:00,
2013-04-06 02:52:00,45.3,40.8,30.02,ESE,104,1.0,2.0,84,0.00,,---,0.00,VWS V14.01,2013-04-06 07:52:00,
2013-04-06 02:53:00,45.3,40.8,30.02,ESE,104,1.0,2.0,84,0.00,,---,0.00,VWS V14.01,2013-04-06 07:53:00,
2013-04-06 02:56:00,45.5,41.0,30.02,ESE,104,2.0,2.0,84,0.00,,---,0.00,VWS V14.01,2013-04-06 07:56:00,
2013-04-06 02:57:00,45.8,40.9,30.02,ESE,104,0.0,0.0,83,0.00,,---,0.00,VWS V14.01,2013-04-06 07:57:00,
2013-04-06 02:58:00,45.8,40.9,30.02,ESE,104,0.0,0.0,83,0.00,,---,0.00,VWS V14.01,2013-04-06 07:58:00,
2013-04-06 03:00:00,45.7,40.8,30.02,ESE,104,0.0,2.0,83,0.00,,---,0.00,VWS V14.01,2013-04-06 08:00:00,
2013-04-06 03:02:00,46.1,40.9,30.02,ESE,104,0.0,0.0,82,0.00,,---,0.00,VWS V14.01,2013-04-06 08:02:00,
2013-04-06 03:03:00,46.2,41.0,30.02,ESE,104,0.0,0.0,82,0.00,,---,0.00,VWS V14.01,2013-04-06 08:03:00,
2013-04-06 03:07:00,46.0,40.8,30.02,ESE,104,0.0,0.0,82,0.00,,---,0.00,VWS V14.01,2013-04-06 08:07:00,
2013-04-06 03:08:00,46.1,40.9,30.02,ESE,104,0.0,0.0,82,0.00,,---,0.00,VWS V14.01,2013-04-06 08:08:00,
2013-04-06 03:12:00,46.1,40.9,30.02,ESE,104,0.0,0.0,82,0.00,,---,0.00,VWS V14.01,2013-04-06 08:12:00,
2013-04-06 03:13:00,46.1,40.9,30.02,ESE,104,0.0,0.0,82,0.00,,---,0.00,VWS V14.01,2013-04-06 08:13:00,
2013-04-06 03:17:00,46.3,40.8,30.01,ESE,104,0.0,0.0,81,0.00,,---,0.00,VWS V14.01,2013-04-06 08:17:00,
2013-04-06 03:18:00,46.3,40.8,30.01,ESE,104,0.0,0.0,81,0.00,,---,0.00,VWS V14.01,2013-04-06 08:18:00,
2013-04-06 03:19:00,46.4,40.6,30.01,ESE,104,0.0,0.0,80,0.00,,---,0.00,VWS V14.01,2013-04-06 08:19:00,
2013-04-06 03:22:00,46.2,40.7,30.01,ESE,104,0.0,0.0,81,0.00,,---,0.00,VWS V14.01,2013-04-06 08:22:00,
2013-04-06 03:23:00,46.2,40.7,30.01,ESE,104,0.0,0.0,81,0.00,,---,0.00,VWS V14.01,2013-04-06 08:23:00,
2013-04-06 03:24:00,46.0,40.8,30.01,ESE,104,0.0,0.0,82,0.00,,---,0.00,VWS V14.01,2013-04-06 08:24:00,
2013-04-06 03:28:00,45.8,40.6,30.01,ESE,104,0.0,0.0,82,0.00,,---,0.00,VWS V14.01,2013-04-06 08:28:00,
2013-04-06 03:29:00,45.8,40.6,30.01,ESE,104,0.0,0.0,82,0.00,,---,0.00,VWS V14.01,2013-04-06 08:29:00,
2013-04-06 03:30:00,45.9,40.7,30.01,ESE,104,0.0,0.0,82,0.00,,---,0.00,VWS V14.01,2013-04-06 08:30:00,
2013-04-06 03:33:00,45.8,40.6,30.01,ESE,104,0.0,0.0,82,0.00,,---,0.00,VWS V14.01,2013-04-06 08:33:00,
2013-04-06 03:34:00,45.8,40.6,30.01,ESE,104,0.0,0.0,82,0.00,,---,0.00,VWS V14.01,2013-04-06 08:34:00,
2013-04-06 03:35:00,45.8,40.6,30.01,ESE,104,0.0,0.0,82,0.00,,---,0.00,VWS V14.01,2013-04-06 08:35:00,
2013-04-06 03:38:00,45.8,40.6,30.01,ESE,104,0.0,0.0,82,0.00,,---,0.00,VWS V14.01,2013-04-06 08:38:00,
2013-04-06 03:40:00,45.8,40.6,30.01,ESE,104,0.0,0.0,82,0.00,,---,0.00,VWS V14.01,2013-04-06 08:40:00,
2013-04-06 03:43:00,45.6,40.7,30.01,ESE,104,0.0,0.0,83,0.00,,---,0.00,VWS V14.01,2013-04-06 08:43:00,
2013-04-06 03:45:00,45.6,40.4,30.01,ESE,104,0.0,0.0,82,0.00,,---,0.00,VWS V14.01,2013-04-06 08:45:00,
2013-04-06 03:48:00,45.6,40.4,30.01,ESE,104,0.0,0.0,82,0.00,,---,0.00,VWS V14.01,2013-04-06 08:48:00,
2013-04-06 03:50:00,45.8,40.6,30.00,ESE,104,0.0,0.0,82,0.00,,---,0.00,VWS V14.01,2013-04-06 08:50:00,
2013-04-06 03:53:00,45.6,40.4,30.00,ESE,104,0.0,0.0,82,0.00,,---,0.00,VWS V14.01,2013-04-06 08:53:00,
2013-04-06 03:55:00,45.5,40.3,30.00,ESE,104,0.0,0.0,82,0.00,,---,0.00,VWS V14.01,2013-04-06 08:55:00,
2013-04-06 03:56:00,45.5,40.3,30.00,ESE,104,0.0,0.0,82,0.00,,---,0.00,VWS V14.01,2013-04-06 08:56:00,
2013-04-06 03:58:00,45.2,40.3,30.00,ESE,104,0.0,0.0,83,0.00,,---,0.00,VWS V14.01,2013-04-06 08:58:00,
2013-04-06 04:00:00,44.9,40.4,30.01,ESE,104,0.0,0.0,84,0.00,,---,0.00,VWS V14.01,2013-04-06 09:00:00,
2013-04-06 04:01:00,44.8,40.6,30.01,ESE,104,0.0,0.0,85,0.00,,---,0.00,VWS V14.01,2013-04-06 09:01:00,
2013-04-06 04:03:00,44.7,40.5,30.01,ESE,104,0.0,0.0,85,0.00,,---,0.00,VWS V14.01,2013-04-06 09:03:00,
2013-04-06 04:04:00,44.7,40.5,30.01,ESE,104,0.0,0.0,85,0.00,,---,0.00,VWS V14.01,2013-04-06 09:04:00,
2013-04-06 04:05:00,44.4,40.5,30.01,ESE,104,0.0,0.0,86,0.00,,---,0.00,VWS V14.01,2013-04-06 09:05:00,
2013-04-06 04:06:00,44.4,40.5,30.01,ESE,104,0.0,0.0,86,0.00,,---,0.00,VWS V14.01,2013-04-06 09:06:00,
2013-04-06 04:08:00,44.3,40.4,30.01,ESE,104,0.0,0.0,86,0.00,,---,0.00,VWS V14.01,2013-04-06 09:08:00,
2013-04-06 04:09:00,44.3,40.4,30.01,ESE,104,0.0,0.0,86,0.00,,---,0.00,VWS V14.01,2013-04-06 09:09:00,
2013-04-06 04:10:00,44.4,40.5,30.01,ESE,104,0.0,0.0,86,0.00,,---,0.00,VWS V14.01,2013-04-06 09:10:00,
2013-04-06 04:11:00,44.4,40.5,30.01,ESE,104,0.0,0.0,86,0.00,,---,0.00,VWS V14.01,2013-04-06 09:11:00,
2013-04-06 04:14:00,44.3,40.4,30.01,ESE,104,0.0,0.0,86,0.00,,---,0.00,VWS V14.01,2013-04-06 09:14:00,
2013-04-06 04:16:00,44.2,40.6,30.01,ESE,104,0.0,0.0,87,0.00,,---,0.00,VWS V14.01,2013-04-06 09:16:00,
2013-04-06 04:19:00,44.0,40.4,30.01,ESE,104,0.0,0.0,87,0.00,,---,0.00,VWS V14.01,2013-04-06 09:19:00,
2013-04-06 04:22:00,43.9,40.3,30.01,ESE,104,0.0,0.0,87,0.00,,---,0.00,VWS V14.01,2013-04-06 09:22:00,
2013-04-06 04:24:00,43.9,40.3,30.01,ESE,104,0.0,0.0,87,0.00,,---,0.00,VWS V14.01,2013-04-06 09:24:00,
2013-04-06 04:27:00,44.0,40.4,30.01,ESE,104,0.0,0.0,87,0.00,,---,0.00,VWS V14.01,2013-04-06 09:27:00,
2013-04-06 04:29:00,43.9,40.6,30.01,ESE,104,0.0,0.0,88,0.00,,---,0.00,VWS V14.01,2013-04-06 09:29:00,
2013-04-06 04:30:00,43.8,40.5,30.01,ESE,104,0.0,0.0,88,0.00,,---,0.00,VWS V14.01,2013-04-06 09:30:00,
2013-04-06 04:32:00,43.8,40.5,30.01,ESE,104,0.0,0.0,88,0.00,,---,0.00,VWS V14.01,2013-04-06 09:32:00,
2013-04-06 04:35:00,43.8,40.5,30.01,ESE,104,0.0,0.0,88,0.00,,---,0.00,VWS V14.01,2013-04-06 09:35:00,
2013-04-06 04:37:00,43.8,40.2,30.01,ESE,104,0.0,0.0,87,0.00,,---,0.00,VWS V14.01,2013-04-06 09:37:00,
2013-04-06 04:40:00,43.9,40.6,30.01,ESE,104,0.0,0.0,88,0.00,,---,0.00,VWS V14.01,2013-04-06 09:40:00,
2013-04-06 04:42:00,43.9,40.3,30.01,ESE,104,0.0,0.0,87,0.00,,---,0.00,VWS V14.01,2013-04-06 09:42:00,
2013-04-06 04:46:00,43.7,40.4,30.01,ESE,104,0.0,0.0,88,0.00,,---,0.00,VWS V14.01,2013-04-06 09:46:00,
2013-04-06 04:47:00,43.7,40.4,30.01,ESE,104,0.0,0.0,88,0.00,,---,0.00,VWS V14.01,2013-04-06 09:47:00,
2013-04-06 04:48:00,43.7,40.4,30.01,ESE,104,0.0,0.0,88,0.00,,---,0.00,VWS V14.01,2013-04-06 09:48:00,
2013-04-06 04:51:00,43.7,40.4,30.01,ESE,104,0.0,0.0,88,0.00,,---,0.00,VWS V14.01,2013-04-06 09:51:00,
2013-04-06 04:52:00,43.6,40.3,30.00,ESE,104,0.0,0.0,88,0.00,,---,0.00,VWS V14.01,2013-04-06 09:52:00,
2013-04-06 04:53:00,43.5,40.2,30.01,ESE,104,0.0,0.0,88,0.00,,---,0.00,VWS V14.01,2013-04-06 09:53:00,
2013-04-06 04:56:00,43.3,40.0,30.01,ESE,104,0.0,0.0,88,0.00,,---,0.00,VWS V14.01,2013-04-06 09:56:00,
2013-04-06 04:57:00,43.3,40.0,30.01,ESE,104,0.0,0.0,88,0.00,,---,0.00,VWS V14.01,2013-04-06 09:57:00,
2013-04-06 04:59:00,43.3,40.0,30.01,ESE,104,0.0,0.0,88,0.00,,---,0.00,VWS V14.01,2013-04-06 09:59:00,
2013-04-06 05:00:00,43.3,40.0,30.01,ESE,104,0.0,0.0,88,0.00,,---,0.00,VWS V14.01,2013-04-06 10:00:00,
2013-04-06 05:01:00,43.6,40.3,30.01,ESE,104,0.0,0.0,88,0.00,,---,0.00,VWS V14.01,2013-04-06 10:01:00,
2013-04-06 05:03:00,43.7,40.4,30.00,ESE,104,0.0,0.0,88,0.00,,---,0.00,VWS V14.01,2013-04-06 10:03:00,
2013-04-06 05:04:00,43.8,40.5,30.00,ESE,104,0.0,0.0,88,0.00,,---,0.00,VWS V14.01,2013-04-06 10:04:00,
2013-04-06 05:06:00,43.9,40.3,30.00,ESE,104,0.0,0.0,87,0.00,,---,0.00,VWS V14.01,2013-04-06 10:06:00,
2013-04-06 05:07:00,43.9,40.3,30.00,ESE,104,0.0,0.0,87,0.00,,---,0.00,VWS V14.01,2013-04-06 10:07:00,
2013-04-06 05:08:00,43.9,40.3,30.00,ESE,104,0.0,0.0,87,0.00,,---,0.00,VWS V14.01,2013-04-06 10:08:00,
2013-04-06 05:09:00,43.8,40.2,30.00,ESE,104,0.0,0.0,87,0.00,,---,0.00,VWS V14.01,2013-04-06 10:09:00,
2013-04-06 05:12:00,43.5,39.9,30.00,ESE,104,0.0,0.0,87,0.00,,---,0.00,VWS V14.01,2013-04-06 10:12:00,
2013-04-06 05:13:00,43.3,39.7,30.00,ESE,104,0.0,0.0,87,0.00,,---,0.00,VWS V14.01,2013-04-06 10:13:00,
2013-04-06 05:14:00,43.2,39.9,30.00,ESE,104,0.0,0.0,88,0.00,,---,0.00,VWS V14.01,2013-04-06 10:14:00,
2013-04-06 05:17:00,43.1,40.1,30.00,ESE,104,0.0,0.0,89,0.00,,---,0.00,VWS V14.01,2013-04-06 10:17:00,
2013-04-06 05:18:00,43.1,40.1,30.00,ESE,104,0.0,0.0,89,0.00,,---,0.00,VWS V14.01,2013-04-06 10:18:00,
2013-04-06 05:19:00,43.2,40.2,30.00,ESE,104,0.0,0.0,89,0.00,,---,0.00,VWS V14.01,2013-04-06 10:19:00,
2013-04-06 05:22:00,43.3,40.3,30.00,ESE,104,0.0,1.0,89,0.00,,---,0.00,VWS V14.01,2013-04-06 10:22:00,
2013-04-06 05:23:00,43.5,40.5,30.00,ESE,104,0.0,1.0,89,0.00,,---,0.00,VWS V14.01,2013-04-06 10:23:00,
2013-04-06 05:24:00,43.6,40.6,30.00,ESE,104,0.0,1.0,89,0.00,,---,0.00,VWS V14.01,2013-04-06 10:24:00,
2013-04-06 05:27:00,43.4,40.4,30.00,ESE,104,0.0,1.0,89,0.00,,---,0.00,VWS V14.01,2013-04-06 10:27:00,
2013-04-06 05:28:00,43.4,40.4,30.00,ESE,104,0.0,0.0,89,0.00,,---,0.00,VWS V14.01,2013-04-06 10:28:00,
2013-04-06 05:30:00,43.3,40.3,30.00,ESE,104,0.0,0.0,89,0.00,,---,0.00,VWS V14.01,2013-04-06 10:30:00,
2013-04-06 05:32:00,43.2,40.2,30.00,ESE,104,0.0,0.0,89,0.00,,---,0.00,VWS V14.01,2013-04-06 10:32:00,
2013-04-06 05:34:00,43.1,40.1,30.00,ESE,104,0.0,0.0,89,0.00,,---,0.00,VWS V14.01,2013-04-06 10:34:00,
2013-04-06 05:35:00,43.1,40.1,30.00,ESE,104,0.0,0.0,89,0.00,,---,0.00,VWS V14.01,2013-04-06 10:35:00,
2013-04-06 05:37:00,43.0,40.0,30.00,ESE,104,0.0,0.0,89,0.00,,---,0.00,VWS V14.01,2013-04-06 10:37:00,
2013-04-06 05:38:00,42.9,39.9,30.00,ESE,104,0.0,0.0,89,0.00,,---,0.00,VWS V14.01,2013-04-06 10:38:00,
2013-04-06 05:39:00,42.8,39.8,30.00,ESE,104,0.0,0.0,89,0.00,,---,0.00,VWS V14.01,2013-04-06 10:39:00,
2013-04-06 05:40:00,42.8,39.8,30.00,ESE,104,0.0,0.0,89,0.00,,---,0.00,VWS V14.01,2013-04-06 10:40:00,
2013-04-06 05:42:00,42.8,40.1,30.00,ESE,104,0.0,0.0,90,0.00,,---,0.00,VWS V14.01,2013-04-06 10:42:00,
2013-04-06 05:43:00,42.8,40.1,30.00,ESE,104,0.0,0.0,90,0.00,,---,0.00,VWS V14.01,2013-04-06 10:43:00,
2013-04-06 05:45:00,42.9,40.2,30.00,ESE,104,0.0,0.0,90,0.00,,---,0.00,VWS V14.01,2013-04-06 10:45:00,
2013-04-06 05:46:00,42.8,40.1,30.00,ESE,104,0.0,0.0,90,0.00,,---,0.00,VWS V14.01,2013-04-06 10:46:00,
2013-04-06 05:48:00,42.8,40.1,30.00,ESE,104,0.0,0.0,90,0.00,,---,0.00,VWS V14.01,2013-04-06 10:48:00,
2013-04-06 05:50:00,42.7,39.7,30.00,ESE,104,0.0,0.0,89,0.00,,---,0.00,VWS V14.01,2013-04-06 10:50:00,
2013-04-06 05:51:00,42.7,40.0,30.00,ESE,104,0.0,0.0,90,0.00,,---,0.00,VWS V14.01,2013-04-06 10:51:00,
2013-04-06 05:53:00,42.7,40.0,30.00,ESE,104,0.0,0.0,90,0.00,,---,0.00,VWS V14.01,2013-04-06 10:53:00,
2013-04-06 05:55:00,42.7,40.0,30.00,ESE,104,0.0,0.0,90,0.00,,---,0.00,VWS V14.01,2013-04-06 10:55:00,
2013-04-06 05:56:00,42.6,39.9,30.00,ESE,104,0.0,0.0,90,0.00,,---,0.00,VWS V14.01,2013-04-06 10:56:00,
2013-04-06 05:58:00,42.5,39.8,30.00,ESE,104,0.0,0.0,90,0.00,,---,0.00,VWS V14.01,2013-04-06 10:58:00,
2013-04-06 05:59:00,42.4,39.7,30.00,ESE,104,0.0,0.0,90,0.00,,---,0.00,VWS V14.01,2013-04-06 10:59:00,
2013-04-06 06:00:00,42.4,39.7,30.00,ESE,104,0.0,0.0,90,0.00,,---,0.00,VWS V14.01,2013-04-06 11:00:00,
2013-04-06 06:02:00,42.4,39.7,30.00,ESE,104,0.0,0.0,90,0.00,,---,0.00,VWS V14.01,2013-04-06 11:02:00,
2013-04-06 06:03:00,42.4,39.7,30.00,ESE,104,0.0,0.0,90,0.00,,---,0.00,VWS V14.01,2013-04-06 11:03:00,
2013-04-06 06:04:00,42.4,39.7,30.00,ESE,104,0.0,0.0,90,0.00,,---,0.00,VWS V14.01,2013-04-06 11:04:00,
2013-04-06 06:05:00,42.4,39.7,30.00,ESE,104,0.0,0.0,90,0.00,,---,0.00,VWS V14.01,2013-04-06 11:05:00,
2013-04-06 06:07:00,42.2,39.5,30.00,ESE,104,0.0,0.0,90,0.00,,---,0.00,VWS V14.01,2013-04-06 11:07:00,
2013-04-06 06:08:00,42.1,39.4,30.00,ESE,104,0.0,0.0,90,0.00,,---,0.00,VWS V14.01,2013-04-06 11:08:00,
2013-04-06 06:09:00,42.0,39.3,30.00,ESE,104,0.0,0.0,90,0.00,,---,0.00,VWS V14.01,2013-04-06 11:09:00,
2013-04-06 06:10:00,41.6,38.9,30.00,ESE,104,1.0,1.0,90,0.00,,---,0.00,VWS V14.01,2013-04-06 11:10:00,
2013-04-06 06:12:00,41.4,38.7,30.00,ESE,104,0.0,1.0,90,0.00,,---,0.00,VWS V14.01,2013-04-06 11:12:00,
2013-04-06 06:14:00,41.3,38.9,30.00,ESE,104,0.0,1.0,91,0.00,,---,0.00,VWS V14.01,2013-04-06 11:14:00,
2013-04-06 06:15:00,41.5,39.1,30.00,ESE,104,0.0,1.0,91,0.00,,---,0.00,VWS V14.01,2013-04-06 11:15:00,
2013-04-06 06:17:00,41.6,39.2,30.00,ESE,104,0.0,1.0,91,0.00,,---,0.00,VWS V14.01,2013-04-06 11:17:00,
2013-04-06 06:19:00,42.0,39.6,30.00,ESE,104,0.0,1.0,91,0.00,,---,0.00,VWS V14.01,2013-04-06 11:19:00,
2013-04-06 06:20:00,42.1,39.7,30.00,ESE,104,0.0,1.0,91,0.00,,---,0.00,VWS V14.01,2013-04-06 11:20:00,
2013-04-06 06:22:00,42.5,40.3,30.00,ESE,104,0.0,1.0,92,0.00,,---,0.00,VWS V14.01,2013-04-06 11:22:00,
2013-04-06 06:24:00,42.6,40.2,30.00,ESE,104,0.0,1.0,91,0.00,,---,0.00,VWS V14.01,2013-04-06 11:24:00,
2013-04-06 06:25:00,42.5,39.8,30.00,ESE,104,0.0,1.0,90,0.00,,---,0.00,VWS V14.01,2013-04-06 11:25:00,
2013-04-06 06:26:00,42.4,39.7,30.00,ESE,104,0.0,1.0,90,0.00,,---,0.00,VWS V14.01,2013-04-06 11:26:00,
2013-04-06 06:27:00,42.1,39.4,30.01,ESE,104,0.0,0.0,90,0.00,,---,0.00,VWS V14.01,2013-04-06 11:27:00,
2013-04-06 06:29:00,41.8,39.1,30.00,ESE,104,0.0,0.0,90,0.00,,---,0.00,VWS V14.01,2013-04-06 11:29:00,
2013-04-06 06:30:00,41.8,39.1,30.01,ESE,104,0.0,0.0,90,0.00,,---,0.00,VWS V14.01,2013-04-06 11:30:00,
2013-04-06 06:31:00,41.7,39.0,30.01,ESE,104,0.0,0.0,90,0.00,,---,0.00,VWS V14.01,2013-04-06 11:31:00,
2013-04-06 06:33:00,41.6,38.9,30.01,ESE,104,0.0,0.0,90,0.00,,---,0.00,VWS V14.01,2013-04-06 11:33:00,
2013-04-06 06:35:00,41.5,39.1,30.01,ESE,104,0.0,0.0,91,0.00,,---,0.00,VWS V14.01,2013-04-06 11:35:00,
2013-04-06 06:36:00,41.5,39.1,30.01,ESE,104,0.0,0.0,91,0.00,,---,0.00,VWS V14.01,2013-04-06 11:36:00,
2013-04-06 06:38:00,41.7,39.3,30.00,ESE,104,0.0,0.0,91,0.00,,---,0.00,VWS V14.01,2013-04-06 11:38:00,
2013-04-06 06:40:00,41.8,39.7,30.00,ESE,104,0.0,0.0,92,0.00,,---,0.00,VWS V14.01,2013-04-06 11:40:00,
2013-04-06 06:41:00,41.8,39.4,30.00,ESE,104,0.0,0.0,91,0.00,,---,0.00,VWS V14.01,2013-04-06 11:41:00,
2013-04-06 06:43:00,41.8,39.4,30.01,ESE,104,0.0,0.0,91,0.00,,---,0.00,VWS V14.01,2013-04-06 11:43:00,
2013-04-06 06:45:00,41.6,38.9,30.01,ESE,104,0.0,0.0,90,0.00,,---,0.00,VWS V14.01,2013-04-06 11:45:00,
2013-04-06 06:46:00,41.5,39.1,30.01,ESE,104,0.0,0.0,91,0.00,,---,0.00,VWS V14.01,2013-04-06 11:46:00,
2013-04-06 06:48:00,41.5,39.1,30.01,ESE,104,0.0,1.0,91,0.00,,---,0.00,VWS V14.01,2013-04-06 11:48:00,
2013-04-06 06:50:00,41.5,39.1,30.01,ESE,104,0.0,1.0,91,0.00,,---,0.00,VWS V14.01,2013-04-06 11:50:00,
2013-04-06 06:51:00,41.5,39.1,30.01,ESE,104,0.0,1.0,91,0.00,,---,0.00,VWS V14.01,2013-04-06 11:51:00,
2013-04-06 06:53:00,41.5,39.1,30.01,ESE,104,0.0,1.0,91,0.00,,---,0.00,VWS V14.01,2013-04-06 11:53:00,
2013-04-06 06:55:00,41.3,38.9,30.01,ESE,104,0.0,1.0,91,0.00,,---,0.00,VWS V14.01,2013-04-06 11:55:00,
2013-04-06 06:57:00,41.2,38.8,30.01,ESE,104,0.0,1.0,91,0.00,,---,0.00,VWS V14.01,2013-04-06 11:57:00,
2013-04-06 06:58:00,41.1,39.0,30.01,ESE,104,0.0,0.0,92,0.00,,---,0.00,VWS V14.01,2013-04-06 11:58:00,
2013-04-06 07:00:00,41.1,39.0,30.01,ESE,104,0.0,1.0,92,0.00,,---,0.00,VWS V14.01,2013-04-06 12:00:00,
2013-04-06 07:02:00,41.4,39.2,30.01,ESE,104,2.0,2.0,92,0.00,,---,0.00,VWS V14.01,2013-04-06 12:02:00,
2013-04-06 07:03:00,41.8,39.9,30.01,ESE,104,0.0,2.0,93,0.00,,---,0.00,VWS V14.01,2013-04-06 12:03:00,
2013-04-06 07:06:00,42.6,40.4,30.01,ESE,104,0.0,2.0,92,0.00,,---,0.00,VWS V14.01,2013-04-06 12:06:00,
2013-04-06 07:07:00,42.7,40.5,30.01,ESE,104,0.0,2.0,92,0.00,,---,0.00,VWS V14.01,2013-04-06 12:07:00,
2013-04-06 07:08:00,42.7,40.3,30.01,ESE,104,0.0,2.0,91,0.00,,---,0.00,VWS V14.01,2013-04-06 12:08:00,
2013-04-06 07:12:00,42.9,40.5,30.02,ESE,104,0.0,2.0,91,0.00,,---,0.00,VWS V14.01,2013-04-06 12:12:00,
2013-04-06 07:13:00,43.0,40.6,30.02,ESE,104,0.0,2.0,91,0.00,,---,0.00,VWS V14.01,2013-04-06 12:13:00,
2013-04-06 07:14:00,43.1,40.7,30.02,ESE,104,0.0,2.0,91,0.00,,---,0.00,VWS V14.01,2013-04-06 12:14:00,
2013-04-06 07:17:00,43.4,41.0,30.02,North,2,0.0,2.0,91,0.00,,---,0.00,VWS V14.01,2013-04-06 12:17:00,
2013-04-06 07:19:00,43.6,40.9,30.02,North,2,0.0,2.0,90,0.00,,---,0.00,VWS V14.01,2013-04-06 12:19:00,
2013-04-06 07:22:00,44.0,41.3,30.02,North,356,0.0,2.0,90,0.00,,---,0.00,VWS V14.01,2013-04-06 12:22:00,
2013-04-06 07:23:00,44.0,41.3,30.02,North,356,0.0,2.0,90,0.00,,---,0.00,VWS V14.01,2013-04-06 12:23:00,
2013-04-06 07:24:00,44.1,41.4,30.02,North,357,1.0,2.0,90,0.00,,---,0.00,VWS V14.01,2013-04-06 12:24:00,
2013-04-06 07:27:00,44.2,41.2,30.02,East,97,2.0,2.0,89,0.00,,---,0.00,VWS V14.01,2013-04-06 12:27:00,
2013-04-06 07:28:00,44.2,41.2,30.02,East,97,2.0,3.0,89,0.00,,---,0.00,VWS V14.01,2013-04-06 12:28:00,
2013-04-06 07:29:00,44.3,41.3,30.02,ESE,105,2.0,5.0,89,0.00,,---,0.00,VWS V14.01,2013-04-06 12:29:00,
2013-04-06 07:30:00,44.3,41.3,30.02,ESE,105,2.0,5.0,89,0.00,,---,0.00,VWS V14.01,2013-04-06 12:30:00,
2013-04-06 07:32:00,44.7,42.0,30.01,East,94,2.0,5.0,90,0.00,,---,0.00,VWS V14.01,2013-04-06 12:32:00,
2013-04-06 07:33:00,44.7,41.7,30.01,East,94,3.0,5.0,89,0.00,,---,0.00,VWS V14.01,2013-04-06 12:33:00,
2013-04-06 07:34:00,45.0,42.2,30.01,East,94,2.0,5.0,90,0.00,,---,0.00,VWS V14.01,2013-04-06 12:34:00,
2013-04-06 07:35:00,45.1,42.3,30.01,East,94,3.0,5.0,90,0.00,,---,0.00,VWS V14.01,2013-04-06 12:35:00,
2013-04-06 07:37:00,45.7,42.9,30.01,East,94,3.0,5.0,90,0.00,,---,0.00,VWS V14.01,2013-04-06 12:37:00,
2013-04-06 07:39:00,46.1,42.8,30.01,East,94,4.0,5.0,88,0.00,,---,0.00,VWS V14.01,2013-04-06 12:39:00,
2013-04-06 07:40:00,46.2,42.8,30.01,ESE,104,4.0,5.0,88,0.00,,---,0.00,VWS V14.01,2013-04-06 12:40:00,
2013-04-06 07:43:00,46.8,42.8,30.02,ESE,104,4.0,5.0,86,0.00,,---,0.00,VWS V14.01,2013-04-06 12:43:00,
2013-04-06 07:44:00,47.1,42.8,30.01,ESE,104,4.0,5.0,85,0.00,,---,0.00,VWS V14.01,2013-04-06 12:44:00,
2013-04-06 07:45:00,47.2,42.9,30.01,ESE,104,3.0,5.0,85,0.00,,---,0.00,VWS V14.01,2013-04-06 12:45:00,
2013-04-06 07:48:00,47.3,42.7,30.01,ESE,114,3.0,5.0,84,0.00,,---,0.00,VWS V14.01,2013-04-06 12:48:00,
2013-04-06 07:49:00,47.4,42.5,30.01,ESE,118,4.0,6.0,83,0.00,,---,0.00,VWS V14.01,2013-04-06 12:49:00,
2013-04-06 07:50:00,47.7,42.8,30.01,ESE,108,4.0,7.0,83,0.00,,---,0.00,VWS V14.01,2013-04-06 12:50:00,
2013-04-06 07:51:00,47.8,42.9,30.01,ESE,108,3.0,7.0,83,0.00,,---,0.00,VWS V14.01,2013-04-06 12:51:00,
2013-04-06 07:53:00,48.2,43.3,30.02,ESE,118,7.0,9.0,83,0.00,,---,0.00,VWS V14.01,2013-04-06 12:53:00,
2013-04-06 07:54:00,48.3,43.1,30.01,ESE,113,4.0,9.0,82,0.00,,---,0.00,VWS V14.01,2013-04-06 12:54:00,
2013-04-06 07:56:00,48.6,43.7,30.01,ESE,103,5.0,9.0,83,0.00,,---,0.00,VWS V14.01,2013-04-06 12:56:00,
2013-04-06 07:58:00,48.8,43.6,30.02,SE,126,5.0,5.0,82,0.00,,---,0.00,VWS V14.01,2013-04-06 12:58:00,
2013-04-06 07:59:00,48.9,43.3,30.01,SE,125,2.0,6.0,81,0.00,,---,0.00,VWS V14.01,2013-04-06 12:59:00,
2013-04-06 08:00:00,48.7,43.5,30.02,ESE,116,3.0,9.0,82,0.00,,---,0.00,VWS V14.01,2013-04-06 13:00:00,
2013-04-06 08:01:00,49.1,43.5,30.02,ESE,117,5.0,6.0,81,0.00,,---,0.00,VWS V14.01,2013-04-06 13:01:00,
2013-04-06 08:02:00,49.2,43.3,30.02,ESE,110,3.0,6.0,80,0.00,,---,0.00,VWS V14.01,2013-04-06 13:02:00,
2013-04-06 08:03:00,49.4,43.8,30.02,SE,140,4.0,6.0,81,0.00,,---,0.00,VWS V14.01,2013-04-06 13:03:00,
2013-04-06 08:04:00,49.4,43.2,30.02,SSE,162,5.0,7.0,79,0.00,,---,0.00,VWS V14.01,2013-04-06 13:04:00,
2013-04-06 08:07:00,49.8,43.6,30.02,SE,131,6.0,7.0,79,0.00,,---,0.00,VWS V14.01,2013-04-06 13:07:00,
2013-04-06 08:08:00,50.0,43.8,30.02,SE,138,6.0,7.0,79,0.00,,---,0.00,VWS V14.01,2013-04-06 13:08:00,
2013-04-06 08:09:00,50.1,43.5,30.02,SE,126,4.0,7.0,78,0.00,,---,0.00,VWS V14.01,2013-04-06 13:09:00,
2013-04-06 08:12:00,50.5,43.6,30.02,SE,126,6.0,8.0,77,0.00,,---,0.00,VWS V14.01,2013-04-06 13:12:00,
2013-04-06 08:13:00,50.6,43.7,30.02,SE,131,5.0,8.0,77,0.00,,---,0.00,VWS V14.01,2013-04-06 13:13:00,
2013-04-06 08:14:00,50.7,43.8,30.02,SE,126,8.0,8.0,77,0.00,,---,0.00,VWS V14.01,2013-04-06 13:14:00,
2013-04-06 08:15:00,50.9,43.6,30.02,SE,125,8.0,11.0,76,0.00,,---,0.00,VWS V14.01,2013-04-06 13:15:00,
2013-04-06 08:17:00,51.1,43.5,30.02,ESE,120,6.0,14.0,75,0.00,,---,0.00,VWS V14.01,2013-04-06 13:17:00,
2013-04-06 08:19:00,51.2,43.6,30.02,SE,130,7.0,14.0,75,0.00,,---,0.00,VWS V14.01,2013-04-06 13:19:00,
2013-04-06 08:20:00,51.4,43.4,30.02,SE,126,2.0,14.0,74,0.00,,---,0.00,VWS V14.01,2013-04-06 13:20:00,
2013-04-06 08:22:00,51.6,43.6,30.02,SSE,152,4.0,14.0,74,0.00,,---,0.00,VWS V14.01,2013-04-06 13:22:00,
2013-04-06 08:24:00,51.8,43.4,30.02,SSE,150,8.0,14.0,73,0.00,,---,0.00,VWS V14.01,2013-04-06 13:24:00,
2013-04-06 08:25:00,51.9,43.5,30.02,ESE,117,3.0,14.0,73,0.00,,---,0.00,VWS V14.01,2013-04-06 13:25:00,
2013-04-06 08:27:00,52.0,44.3,30.02,ESE,120,5.0,5.0,75,0.00,,---,0.00,VWS V14.01,2013-04-06 13:27:00,
2013-04-06 08:29:00,52.2,44.2,30.02,SE,145,4.0,5.0,74,0.00,,---,0.00,VWS V14.01,2013-04-06 13:29:00,
2013-04-06 08:30:00,51.9,43.9,30.02,SE,129,3.0,14.0,74,0.00,,---,0.00,VWS V14.01,2013-04-06 13:30:00,
2013-04-06 08:31:00,52.3,43.9,30.02,SSE,156,6.0,7.0,73,0.00,,---,0.00,VWS V14.01,2013-04-06 13:31:00,
2013-04-06 08:32:00,52.4,43.7,30.02,ESE,118,2.0,7.0,72,0.00,,---,0.00,VWS V14.01,2013-04-06 13:32:00,
2013-04-06 08:35:00,52.6,43.8,30.02,SE,131,9.0,9.0,72,0.00,,---,0.00,VWS V14.01,2013-04-06 13:35:00,
2013-04-06 08:36:00,52.7,43.9,30.02,SE,125,6.0,11.0,72,0.00,,---,0.00,VWS V14.01,2013-04-06 13:36:00,
2013-04-06 08:38:00,52.7,44.3,30.02,SE,137,7.0,11.0,73,0.00,,---,0.00,VWS V14.01,2013-04-06 13:38:00,
2013-04-06 08:40:00,52.9,43.8,30.02,SE,140,6.0,11.0,71,0.00,,---,0.00,VWS V14.01,2013-04-06 13:40:00,
2013-04-06 08:41:00,53.0,43.5,30.01,SE,139,6.0,11.0,70,0.00,,---,0.00,VWS V14.01,2013-04-06 13:41:00,
2013-04-06 08:43:00,53.1,44.0,30.01,ESE,112,4.0,11.0,71,0.00,,---,0.00,VWS V14.01,2013-04-06 13:43:00,
2013-04-06 08:45:00,53.2,44.4,30.01,ESE,108,3.0,11.0,72,0.00,,---,0.00,VWS V14.01,2013-04-06 13:45:00,
2013-04-06 08:47:00,53.3,44.5,30.01,East,95,8.0,11.0,72,0.00,,---,0.00,VWS V14.01,2013-04-06 13:47:00,
2013-04-06 08:48:00,53.3,44.5,30.01,East,99,6.0,11.0,72,0.00,,---,0.00,VWS V14.01,2013-04-06 13:48:00,
2013-04-06 08:50:00,53.5,45.1,30.01,SE,130,6.0,11.0,73,0.00,,---,0.00,VWS V14.01,2013-04-06 13:50:00,
2013-04-06 08:52:00,53.9,44.3,30.01,SE,139,6.0,11.0,70,0.00,,---,0.00,VWS V14.01,2013-04-06 13:52:00,
2013-04-06 08:53:00,54.1,44.5,30.01,SE,127,8.0,11.0,70,0.00,,---,0.00,VWS V14.01,2013-04-06 13:53:00,
2013-04-06 08:55:00,54.2,44.6,30.02,SE,126,9.0,11.0,70,0.00,,---,0.00,VWS V14.01,2013-04-06 13:55:00,
2013-04-06 08:58:00,54.4,44.5,30.02,ESE,116,9.0,9.0,69,0.00,,---,0.00,VWS V14.01,2013-04-06 13:58:00,
2013-04-06 09:00:00,54.6,44.7,30.02,SE,126,9.0,10.0,69,0.00,,---,0.00,VWS V14.01,2013-04-06 14:00:00,
2013-04-06 09:01:00,54.7,44.7,30.02,SSE,161,7.0,10.0,69,0.00,,---,0.00,VWS V14.01,2013-04-06 14:01:00,
2013-04-06 09:04:00,55.2,44.5,30.02,ESE,104,9.0,15.0,67,0.00,,---,0.00,VWS V14.01,2013-04-06 14:04:00,
2013-04-06 09:05:00,55.2,44.5,30.02,ESE,123,7.0,15.0,67,0.00,,---,0.00,VWS V14.01,2013-04-06 14:05:00,
2013-04-06 09:06:00,55.2,44.0,30.01,SE,133,8.0,15.0,66,0.00,,---,0.00,VWS V14.01,2013-04-06 14:06:00,
2013-04-06 09:10:00,55.7,45.3,30.02,ESE,121,9.0,15.0,68,0.00,,---,0.00,VWS V14.01,2013-04-06 14:10:00,
2013-04-06 09:11:00,55.7,44.5,30.02,SE,129,7.0,15.0,66,0.00,,---,0.00,VWS V14.01,2013-04-06 14:11:00,
2013-04-06 09:15:00,55.8,44.6,30.02,SE,129,7.0,15.0,66,0.00,,---,0.00,VWS V14.01,2013-04-06 14:15:00,
2013-04-06 09:16:00,55.8,45.0,30.01,SE,135,6.0,15.0,67,0.00,,---,0.00,VWS V14.01,2013-04-06 14:16:00,
2013-04-06 09:20:00,56.3,45.1,30.01,ESE,111,15.0,15.0,66,0.00,,---,0.00,VWS V14.01,2013-04-06 14:20:00,
2013-04-06 09:21:00,56.3,45.1,30.01,ESE,107,9.0,15.0,66,0.00,,---,0.00,VWS V14.01,2013-04-06 14:21:00,
2013-04-06 09:22:00,56.4,44.8,30.01,SE,125,12.0,15.0,65,0.00,,---,0.00,VWS V14.01,2013-04-06 14:22:00,
2013-04-06 09:26:00,56.9,44.9,30.01,ESE,114,16.0,17.0,64,0.00,,---,0.00,VWS V14.01,2013-04-06 14:26:00,
2013-04-06 09:27:00,57.1,45.0,30.01,ESE,118,12.0,17.0,64,0.00,,---,0.00,VWS V14.01,2013-04-06 14:27:00,
2013-04-06 09:30:00,57.2,45.2,30.01,ESE,102,10.0,17.0,64,0.00,,---,0.00,VWS V14.01,2013-04-06 14:30:00,
2013-04-06 09:31:00,57.5,45.4,30.01,ESE,116,11.0,16.0,64,0.00,,---,0.00,VWS V14.01,2013-04-06 14:31:00,
2013-04-06 09:32:00,57.6,45.1,30.01,SE,124,15.0,17.0,63,0.00,,---,0.00,VWS V14.01,2013-04-06 14:32:00,
2013-04-06 09:33:00,57.7,45.2,30.01,SE,137,12.0,18.0,63,0.00,,---,0.00,VWS V14.01,2013-04-06 14:33:00,
2013-04-06 09:36:00,57.9,45.4,30.01,ESE,123,7.0,18.0,63,0.00,,---,0.00,VWS V14.01,2013-04-06 14:36:00,
2013-04-06 09:37:00,58.1,46.0,30.01,SE,131,8.0,18.0,64,0.00,,---,0.00,VWS V14.01,2013-04-06 14:37:00,
2013-04-06 09:38:00,58.1,45.6,30.01,SE,139,12.0,18.0,63,0.00,,---,0.00,VWS V14.01,2013-04-06 14:38:00,
2013-04-06 09:41:00,58.6,45.2,30.01,ESE,109,12.0,18.0,61,0.00,,---,0.00,VWS V14.01,2013-04-06 14:41:00,
2013-04-06 09:42:00,58.7,45.7,30.01,SE,131,11.0,18.0,62,0.00,,---,0.00,VWS V14.01,2013-04-06 14:42:00,
2013-04-06 09:43:00,58.7,45.3,30.01,SE,135,9.0,18.0,61,0.00,,---,0.00,VWS V14.01,2013-04-06 14:43:00,
2013-04-06 09:47:00,59.4,46.0,30.01,SSE,151,10.0,18.0,61,0.00,,---,0.00,VWS V14.01,2013-04-06 14:47:00,
2013-04-06 09:48:00,59.4,45.5,30.00,SE,124,10.0,18.0,60,0.00,,---,0.00,VWS V14.01,2013-04-06 14:48:00,
2013-04-06 09:52:00,60.0,46.1,30.00,SE,126,7.0,18.0,60,0.00,,---,0.00,VWS V14.01,2013-04-06 14:52:00,
2013-04-06 09:53:00,60.1,46.2,30.00,ESE,122,8.0,18.0,60,0.00,,---,0.00,VWS V14.01,2013-04-06 14:53:00,
2013-04-06 09:57:00,60.7,44.9,30.00,ESE,108,14.0,18.0,56,0.00,,---,0.00,VWS V14.01,2013-04-06 14:57:00,
2013-04-06 09:58:00,60.8,45.0,30.00,SSE,166,10.0,14.0,56,0.00,,---,0.00,VWS V14.01,2013-04-06 14:58:00,
2013-04-06 10:00:00,60.7,44.9,30.00,ESE,116,14.0,18.0,56,0.00,,---,0.00,VWS V14.01,2013-04-06 15:00:00,
2013-04-06 10:02:00,61.5,44.7,30.00,ESE,110,12.0,19.0,54,0.00,,---,0.00,VWS V14.01,2013-04-06 15:02:00,
2013-04-06 10:03:00,61.6,44.8,30.00,ESE,122,11.0,21.0,54,0.00,,---,0.00,VWS V14.01,2013-04-06 15:03:00,
2013-04-06 10:08:00,61.9,45.1,30.00,SE,128,10.0,21.0,54,0.00,,---,0.00,VWS V14.01,2013-04-06 15:08:00,
2013-04-06 10:09:00,62.2,44.9,30.00,ESE,120,16.0,21.0,53,0.00,,---,0.00,VWS V14.01,2013-04-06 15:09:00,
2013-04-06 10:13:00,62.9,44.5,30.00,South,188,7.0,21.0,51,0.00,,---,0.00,VWS V14.01,2013-04-06 15:13:00,
2013-04-06 10:14:00,63.0,44.1,30.00,SSE,151,8.0,21.0,50,0.00,,---,0.00,VWS V14.01,2013-04-06 15:14:00,
2013-04-06 10:18:00,63.3,43.8,30.00,ESE,123,8.0,21.0,49,0.00,,---,0.00,VWS V14.01,2013-04-06 15:18:00,
2013-04-06 10:19:00,63.5,44.0,30.00,SE,124,16.0,21.0,49,0.00,,---,0.00,VWS V14.01,2013-04-06 15:19:00,
2013-04-06 10:24:00,63.9,44.4,30.00,SE,137,14.0,21.0,49,0.00,,---,0.00,VWS V14.01,2013-04-06 15:24:00,
2013-04-06 10:29:00,63.8,42.6,29.99,SE,127,7.0,18.0,46,0.00,,---,0.00,VWS V14.01,2013-04-06 15:29:00,
2013-04-06 10:30:00,63.8,43.2,29.99,ESE,114,14.0,18.0,47,0.00,,---,0.00,VWS V14.01,2013-04-06 15:30:00,
2013-04-06 10:34:00,63.5,42.4,30.00,SSE,167,13.0,20.0,46,0.00,,---,0.00,VWS V14.01,2013-04-06 15:34:00,
2013-04-06 10:35:00,63.5,42.4,30.00,SSE,167,13.0,20.0,46,0.00,,---,0.00,VWS V14.01,2013-04-06 15:35:00,
2013-04-06 10:39:00,63.4,41.7,30.00,South,183,15.0,21.0,45,0.00,,---,0.00,VWS V14.01,2013-04-06 15:39:00,
2013-04-06 10:40:00,63.4,41.7,30.00,SE,144,12.0,21.0,45,0.00,,---,0.00,VWS V14.01,2013-04-06 15:40:00,
2013-04-06 10:45:00,63.2,42.1,30.00,SSE,166,7.0,21.0,46,0.00,,---,0.00,VWS V14.01,2013-04-06 15:45:00,
2013-04-06 10:46:00,63.2,41.5,30.00,ESE,113,10.0,30.0,45,0.00,,---,0.00,VWS V14.01,2013-04-06 15:46:00,
2013-04-06 10:50:00,63.2,41.5,30.00,SSE,160,8.0,30.0,45,0.00,,---,0.00,VWS V14.01,2013-04-06 15:50:00,
2013-04-06 10:52:00,63.2,41.5,30.00,SE,129,14.0,30.0,45,0.00,,---,0.00,VWS V14.01,2013-04-06 15:52:00,
2013-04-06 11:00:00,63.0,41.3,30.00,SE,130,11.0,30.0,45,0.00,,---,0.00,VWS V14.01,2013-04-06 16:00:00,
2013-04-06 11:30:00,65.4,42.9,29.98,SE,135,11.0,22.0,44,0.00,,---,0.00,VWS V14.01,2013-04-06 16:30:00,
2013-04-06 12:00:00,65.9,42.8,29.97,SE,135,14.0,35.0,43,0.00,,---,0.00,VWS V14.01,2013-04-06 17:00:00,
2013-04-06 12:30:00,66.7,44.7,29.95,SE,135,14.0,28.0,45,0.00,,---,0.00,VWS V14.01,2013-04-06 17:30:00,
2013-04-06 13:00:00,67.5,44.8,29.93,SE,135,14.0,31.0,44,0.00,,---,0.00,VWS V14.01,2013-04-06 18:00:00,
2013-04-06 13:30:00,68.3,44.3,29.92,SE,135,12.0,27.0,42,0.00,,---,0.00,VWS V14.01,2013-04-06 18:30:00,
2013-04-06 14:00:00,69.0,45.0,29.90,SE,135,13.0,28.0,42,0.00,,---,0.00,VWS V14.01,2013-04-06 19:00:00,
2013-04-06 14:30:00,68.7,42.1,29.88,SE,135,15.0,29.0,38,0.00,,---,0.00,VWS V14.01,2013-04-06 19:30:00,
2013-04-06 15:00:00,70.0,40.4,29.86,SE,135,14.0,29.0,34,0.00,,---,0.00,VWS V14.01,2013-04-06 20:00:00,
2013-04-06 15:30:00,70.8,42.5,29.83,SE,135,14.0,29.0,36,0.00,,---,0.00,VWS V14.01,2013-04-06 20:30:00,
2013-04-06 16:00:00,70.7,41.7,29.81,SE,135,15.0,31.0,35,0.00,,---,0.00,VWS V14.01,2013-04-06 21:00:00,
2013-04-06 16:30:00,71.2,42.9,29.81,SE,135,16.0,27.0,36,0.00,,---,0.00,VWS V14.01,2013-04-06 21:30:00,
2013-04-06 17:00:00,70.7,42.5,29.82,SE,135,14.0,31.0,36,0.00,,---,0.00,VWS V14.01,2013-04-06 22:00:00,
2013-04-06 17:30:00,70.4,43.6,29.80,SE,135,14.0,28.0,38,0.00,,---,0.00,VWS V14.01,2013-04-06 22:30:00,
2013-04-06 18:00:00,69.9,43.8,29.80,SE,135,13.0,31.0,39,0.00,,---,0.00,VWS V14.01,2013-04-06 23:00:00,
2013-04-06 18:30:00,69.2,44.5,29.80,SE,135,13.0,24.0,41,0.00,,---,0.00,VWS V14.01,2013-04-06 23:30:00,
2013-04-06 19:00:00,67.9,45.8,29.80,SE,135,9.0,18.0,45,0.00,,---,0.00,VWS V14.01,2013-04-07 00:00:00,
2013-04-06 19:30:00,66.9,46.6,29.81,SE,135,8.0,20.0,48,0.00,,---,0.00,VWS V14.01,2013-04-07 00:30:00,
2013-04-06 20:00:00,66.1,46.9,29.82,SE,135,7.0,15.0,50,0.00,,---,0.00,VWS V14.01,2013-04-07 01:00:00,
2013-04-06 20:30:00,65.3,47.8,29.82,SE,135,8.0,16.0,53,0.00,,---,0.00,VWS V14.01,2013-04-07 01:30:00,
2013-04-06 21:00:00,64.7,48.2,29.83,SE,135,6.0,14.0,55,0.00,,---,0.00,VWS V14.01,2013-04-07 02:00:00,
2013-04-06 21:30:00,64.1,48.1,29.84,SE,135,7.0,18.0,56,0.00,,---,0.00,VWS V14.01,2013-04-07 02:30:00,
2013-04-06 22:00:00,63.6,48.6,29.86,SE,135,7.0,16.0,58,0.00,,---,0.00,VWS V14.01,2013-04-07 03:00:00,
2013-04-06 22:30:00,63.2,48.7,29.86,SE,135,7.0,20.0,59,0.00,,---,0.00,VWS V14.01,2013-04-07 03:30:00,
2013-04-06 23:00:00,62.4,48.8,29.86,SE,135,7.0,15.0,61,0.00,,---,0.00,VWS V14.01,2013-04-07 04:00:00,
2013-04-06 23:30:00,61.9,49.2,29.86,SE,135,7.0,13.0,63,0.00,,---,0.00,VWS V14.01,2013-04-07 04:30:00,